SHIYAN-12 01 (SY-12 01)

Last updated on Tue Sep 22 2026 00:03:15 GMT+0000 (Coordinated Universal Time)

1 50321U 21129A 26264.62911138 .00000105 00000+0 00000+0 0 9991 2 50321 3.9158 78.5439 0001791 172.3856 22.4907 1.00480075 17462
UTC large
Height (km)
Speed (km/s)
/
Latitude / Longitude
Inclination (degrees)
Orbital Period (minutes)
Azimuth
Elevation
Range (km)
Doppler Factor

Next 0 passes for location: London (51.5072 / 0.1276)

No passes found over London.
SHIYAN-12 01 (SY-12 01)